Regional Weather Roundup
Issued by NWS

Home | Current Version | Previous Version | Text Only | Print | Product List | Glossary Off
Versions: 1 2 3 4 5 6 7 8 9 10 11 12 13 14 15 16 17 18 19 20 21 22 23 24 25 26 27

000
ASUS45 KBOI 240310
RWRID

IDAHO REGIONAL WEATHER ROUNDUP
NATIONAL WEATHER SERVICE BOISE ID
900 PM MDT MON APR 23 2018

NOTE: "FAIR" INDICATES FEW OR NO CLOUDS BELOW 12000 FEET
WITH NO SIGNIFICANT WEATHER AND/OR OBSTRUCTIONS TO VISIBILITY

IDZ012-014-240400-
SOUTHWEST IDAHO


CITY           SKY/WX    TMP DP  RH WIND       PRES   REMARKS
BOISE          CLEAR     58  28  32 NW7       30.19S
CALDWELL       CLEAR     57  30  35 W8        30.20S
MOUNTAIN HOME  CLEAR     52  28  40 NW7       30.20R
$$

IDZ016-017-240400-
SOUTHCENTRAL IDAHO


CITY           SKY/WX    TMP DP  RH WIND       PRES   REMARKS
BURLEY         PTCLDY    48  36  63 NE7       30.24R
JEROME         MOCLDY    51  35  54 NE18      30.25R
TWIN FALLS     PTCLDY    46  27  47 W5        30.23R
$$

IDZ019>023-240400-
SOUTHEAST IDAHO


CITY           SKY/WX    TMP DP  RH WIND       PRES   REMARKS
IDAHO FALLS    PTCLDY    41  37  86 N7        30.30R
POCATELLO      PTCLDY    45  37  73 NE6       30.28R
REXBURG        CLOUDY    43  32  65 NE10      30.30R
$$

IDZ006-010-011-018-031-032-240400-
CENTRAL IDAHO MOUNTAINS


CITY           SKY/WX    TMP DP  RH WIND       PRES   REMARKS
MCCALL         CLEAR     47  21  35 N7        30.25R
HAILEY         RAIN      45  39  81 NW6       30.29S
STANLEY          N/A     41  27  57 CALM      30.28R
SALMON         CLOUDY    47  29  49 VRB5      30.35R
CHALLIS        CLOUDY    47  27  45 N8        30.31R
$$

IDZ002-004-006-007-026-240400-
NORTHERN IDAHO


CITY           SKY/WX    TMP DP  RH WIND       PRES   REMARKS
LEWISTON       CLEAR     62  32  32 W5        30.28S
LOWELL           N/A     50  40  68 N3        30.32R
COEUR D`ALENE  CLEAR     54  28  36 NE6       30.33R
MULLAN PASS    CLEAR     38  18  44 SE7       30.37S WCI  33
$$




USA.gov is the U.S. government's official web portal to all federal, state and local government web resources and services.